User: anonymous   Login
Location: Columbia
(38.9520°N, 92.3340°W)
Time: 10:25:47
(UTC-05:00)
Language:

SL-08 RB Rocket - Orbit

View from above orbital plane
View from above orbital plane
View from above satellite
View from above satellite

Ground track
Ground track

The orbit data is extracted from the following two-line orbital elements,

1 26387U 00033D   16149.23471123  .00000148  00000-0  33972-4 0  9997
2 26387  98.0187 216.2364 0027811 118.7549 277.9516 14.68151245851399
Epoch (UTC): 28 May 2016 05:37:59
Eccentricity: 0.0027811
inclination: 98.0187°
perigee height: 647 km
apogee height: 686 km
right ascension of ascending node: 216.2364°
argument of perigee: 118.7549°
revolutions per day: 14.68151245
mean anomaly at epoch: 277.9516°
orbit number at epoch: 85139

The dashed part of the orbit path shows where the satellite is in the earth's shadow,  

DLR